• In Deutschland
  • Länderverzeichnis
  • Für 7 Tage
  • Wassertemperatur
  • Satellitenkarten
  • Wetterkarte
  • Widgets
  • user-avatar
    Anmelden

    Stündliche Wetter Malbun

    Heute, 24 September, Sonntag

    Zeit Temperatur Niederschläge Wind Luftdruck Luftfeuchtigkeit
    00:00 +6°C° 0,3 mm 1 m/S 633 mmHg 94%
    01:00 +7°C° 0 mm 1 m/S 633 mmHg 93%
    02:00 +7°C° 0,7 mm 1 m/S 633 mmHg 93%
    03:00 +7°C° 0,7 mm 1 m/S 633 mmHg 93%
    04:00 +7°C° 0,7 mm 1 m/S 633 mmHg 93%
    05:00 +6°C° 0,3 mm 1 m/S 633 mmHg 93%
    06:00 +6°C° 0,3 mm 1 m/S 633 mmHg 93%
    07:00 +6°C° 0,3 mm 1 m/S 633 mmHg 93%
    08:00 +7°C° 0,1 mm 1 m/S 634 mmHg 87%
    09:00 +9°C° 0,1 mm 1 m/S 634 mmHg 81%
    10:00 +9°C° 0,1 mm 2 m/S 635 mmHg 76%
    11:00 +10°C° 0,1 mm 2 m/S 635 mmHg 70%
    12:00 +12°C° 0,1 mm 2 m/S 635 mmHg 64%
    13:00 +13°C° 0,1 mm 2 m/S 635 mmHg 59%
    14:00 +13°C° 0 mm 2 m/S 635 mmHg 59%
    15:00 +12°C° 0 mm 2 m/S 635 mmHg 60%
    16:00 +12°C° 0 mm 2 m/S 635 mmHg 61%
    17:00 +10°C° 0 mm 1 m/S 634 mmHg 71%
    18:00 +8°C° 0 mm 1 m/S 634 mmHg 80%
    19:00 +6°C° 0 mm 1 m/S 633 mmHg 90%
    20:00 +5°C° 0 mm 1 m/S 633 mmHg 91%
    21:00 +5°C° 0 mm 1 m/S 634 mmHg 92%
    22:00 +5°C° 0 mm 1 m/S 634 mmHg 93%
    23:00 +5°C° 0 mm 1 m/S 633 mmHg 91%

    Morgen, 25 September, Montag

    Zeit Temperatur Niederschläge Wind Luftdruck Luftfeuchtigkeit
    00:00 +4°C° 0 mm 1 m/S 633 mmHg 89%
    01:00 +4°C° 0 mm 1 m/S 633 mmHg 88%
    02:00 +4°C° 0 mm 1 m/S 633 mmHg 85%
    03:00 +4°C° 0 mm 1 m/S 633 mmHg 82%
    04:00 +4°C° 0 mm 1 m/S 632 mmHg 79%
    05:00 +4°C° 0 mm 1 m/S 632 mmHg 76%
    06:00 +4°C° 0 mm 1 m/S 632 mmHg 73%
    07:00 +5°C° 0 mm 1 m/S 633 mmHg 70%
    08:00 +7°C° 0 mm 1 m/S 633 mmHg 63%
    09:00 +10°C° 0 mm 1 m/S 634 mmHg 55%
    10:00 +11°C° 0 mm 0 m/S 635 mmHg 47%
    11:00 +13°C° 0 mm 1 m/S 635 mmHg 45%
    12:00 +14°C° 0 mm 1 m/S 635 mmHg 43%
    13:00 +15°C° 0 mm 1 m/S 635 mmHg 40%
    14:00 +14°C° 0 mm 1 m/S 635 mmHg 44%
    15:00 +14°C° 0 mm 2 m/S 634 mmHg 47%
    16:00 +13°C° 0 mm 2 m/S 634 mmHg 50%
    17:00 +11°C° 0 mm 1 m/S 634 mmHg 61%
    18:00 +9°C° 0 mm 1 m/S 633 mmHg 71%
    19:00 +6°C° 0 mm 1 m/S 633 mmHg 81%
    20:00 +6°C° 0 mm 1 m/S 633 mmHg 82%
    21:00 +7°C° 0 mm 1 m/S 633 mmHg 82%
    22:00 +7°C° 0 mm 1 m/S 633 mmHg 82%
    23:00 +7°C° 0,1 mm 1 m/S 633 mmHg 83%

    übermorgen, 26 September, Dienstag

    Zeit Temperatur Niederschläge Wind Luftdruck Luftfeuchtigkeit
    00:00 +7°C° 0,1 mm 1 m/S 633 mmHg 83%
    01:00 +7°C° 0,1 mm 1 m/S 633 mmHg 84%
    02:00 +7°C° 0,1 mm 1 m/S 633 mmHg 85%
    03:00 +7°C° 0,1 mm 1 m/S 633 mmHg 86%
    04:00 +6°C° 0,1 mm 1 m/S 633 mmHg 87%
    05:00 +6°C° 0 mm 1 m/S 633 mmHg 87%
    06:00 +6°C° 0 mm 1 m/S 634 mmHg 87%
    07:00 +6°C° 0 mm 1 m/S 634 mmHg 88%
    08:00 +8°C° 0 mm 1 m/S 634 mmHg 81%
    09:00 +10°C° 0 mm 1 m/S 635 mmHg 74%
    10:00 +12°C° 0 mm 1 m/S 636 mmHg 67%
    11:00 +12°C° 0,1 mm 1 m/S 636 mmHg 67%
    12:00 +12°C° 0,1 mm 1 m/S 636 mmHg 68%
    13:00 +13°C° 0,1 mm 1 m/S 636 mmHg 68%
    14:00 +12°C° 0,2 mm 1 m/S 636 mmHg 71%
    15:00 +12°C° 0,2 mm 1 m/S 636 mmHg 73%
    16:00 +12°C° 0,2 mm 1 m/S 636 mmHg 76%
    17:00 +10°C° 0,1 mm 1 m/S 636 mmHg 82%
    18:00 +9°C° 0,1 mm 1 m/S 635 mmHg 88%
    19:00 +6°C° 0,1 mm 0 m/S 635 mmHg 94%
    20:00 +7°C° 0 mm 1 m/S 635 mmHg 94%
    21:00 +7°C° 0 mm 1 m/S 635 mmHg 94%
    22:00 +7°C° 0 mm 1 m/S 635 mmHg 94%
    23:00 +6°C° 0 mm 1 m/S 635 mmHg 93%

    27 September, Mittwoch

    Zeit Temperatur Niederschläge Wind Luftdruck Luftfeuchtigkeit
    00:00 +6°C° 0 mm 1 m/S 635 mmHg 92%
    01:00 +6°C° 0 mm 1 m/S 635 mmHg 91%
    02:00 +6°C° 0 mm 1 m/S 635 mmHg 91%
    03:00 +5°C° 0 mm 1 m/S 635 mmHg 90%
    04:00 +5°C° 0 mm 1 m/S 635 mmHg 90%
    05:00 +5°C° 0 mm 1 m/S 635 mmHg 88%
    06:00 +6°C° 0 mm 1 m/S 636 mmHg 87%
    07:00 +6°C° 0 mm 1 m/S 636 mmHg 86%
    08:00 +8°C° 0 mm 1 m/S 637 mmHg 78%
    09:00 +11°C° 0 mm 1 m/S 637 mmHg 69%
    10:00 +13°C° 0 mm 1 m/S 638 mmHg 61%
    11:00 +14°C° 0 mm 1 m/S 638 mmHg 58%
    12:00 +15°C° 0 mm 1 m/S 639 mmHg 55%
    13:00 +16°C° 0 mm 1 m/S 639 mmHg 53%
    14:00 +15°C° 0 mm 1 m/S 638 mmHg 56%
    15:00 +15°C° 0 mm 1 m/S 638 mmHg 60%
    16:00 +14°C° 0 mm 1 m/S 638 mmHg 63%
    17:00 +12°C° 0,1 mm 1 m/S 638 mmHg 73%
    18:00 +10°C° 0,1 mm 1 m/S 637 mmHg 82%
    19:00 +7°C° 0,1 mm 0 m/S 636 mmHg 92%
    20:00 +8°C° 0 mm 1 m/S 637 mmHg 91%
    21:00 +7°C° 0 mm 1 m/S 637 mmHg 90%
    22:00 +7°C° 0 mm 1 m/S 637 mmHg 89%
    23:00 +7°C° 0 mm 1 m/S 637 mmHg 88%

    28 September, Donnerstag

    Zeit Temperatur Niederschläge Wind Luftdruck Luftfeuchtigkeit
    00:00 +7°C° 0 mm 1 m/S 637 mmHg 87%
    01:00 +6°C° 0 mm 1 m/S 637 mmHg 86%
    02:00 +6°C° 0 mm 1 m/S 637 mmHg 86%
    03:00 +6°C° 0 mm 1 m/S 637 mmHg 86%
    04:00 +6°C° 0 mm 1 m/S 637 mmHg 85%
    05:00 +6°C° 0 mm 1 m/S 637 mmHg 84%
    06:00 +6°C° 0 mm 1 m/S 637 mmHg 84%
    07:00 +7°C° 0 mm 1 m/S 637 mmHg 83%
    08:00 +9°C° 0 mm 1 m/S 638 mmHg 74%
    09:00 +12°C° 0 mm 1 m/S 639 mmHg 65%
    10:00 +13°C° 0 mm 0 m/S 640 mmHg 55%
    11:00 +15°C° 0 mm 1 m/S 640 mmHg 53%
    12:00 +16°C° 0 mm 1 m/S 640 mmHg 50%
    13:00 +16°C° 0 mm 1 m/S 640 mmHg 48%
    14:00 +16°C° 0 mm 1 m/S 640 mmHg 51%
    15:00 +15°C° 0 mm 1 m/S 640 mmHg 55%
    16:00 +15°C° 0 mm 2 m/S 639 mmHg 59%
    17:00 +13°C° 0 mm 1 m/S 639 mmHg 69%
    18:00 +10°C° 0 mm 1 m/S 638 mmHg 79%
    19:00 +8°C° 0 mm 1 m/S 638 mmHg 90%
    20:00 +8°C° 0 mm 1 m/S 638 mmHg 89%
    21:00 +8°C° 0 mm 1 m/S 638 mmHg 89%
    22:00 +8°C° 0 mm 1 m/S 638 mmHg 88%
    23:00 +7°C° 0 mm 1 m/S 638 mmHg 87%

    29 September, Freitag

    Zeit Temperatur Niederschläge Wind Luftdruck Luftfeuchtigkeit
    00:00 +7°C° 0 mm 1 m/S 638 mmHg 87%
    01:00 +7°C° 0 mm 1 m/S 638 mmHg 86%
    02:00 +7°C° 0 mm 1 m/S 638 mmHg 85%
    03:00 +7°C° 0 mm 1 m/S 637 mmHg 84%
    04:00 +6°C° 0 mm 1 m/S 637 mmHg 83%
    05:00 +7°C° 0 mm 1 m/S 637 mmHg 81%
    06:00 +7°C° 0 mm 1 m/S 637 mmHg 79%
    07:00 +7°C° 0 mm 1 m/S 637 mmHg 77%
    08:00 +10°C° 0 mm 1 m/S 638 mmHg 68%
    09:00 +12°C° 0 mm 1 m/S 639 mmHg 58%
    10:00 +14°C° 0 mm 0 m/S 639 mmHg 48%
    11:00 +16°C° 0 mm 1 m/S 639 mmHg 47%
    12:00 +16°C° 0 mm 1 m/S 639 mmHg 46%
    13:00 +18°C° 0 mm 1 m/S 639 mmHg 44%
    14:00 +16°C° 0 mm 1 m/S 639 mmHg 48%
    15:00 +16°C° 0 mm 1 m/S 638 mmHg 52%
    16:00 +16°C° 0 mm 2 m/S 638 mmHg 56%
    17:00 +13°C° 0 mm 1 m/S 637 mmHg 67%
    18:00 +11°C° 0 mm 1 m/S 636 mmHg 79%
    19:00 +7°C° 0 mm 0 m/S 636 mmHg 90%
    20:00 +8°C° 0 mm 1 m/S 636 mmHg 89%
    21:00 +8°C° 0 mm 1 m/S 636 mmHg 89%
    22:00 +8°C° 0 mm 1 m/S 636 mmHg 88%
    23:00 +7°C° 0 mm 1 m/S 635 mmHg 87%
    Mehr zeigen